| time (UTC) | temp F | wind direction | speed MPH | gust MPH | rain 1hr in | rain 24hr in | rain mn in | humidity % | barometer mb |
| 20260507193015 | 57 | 0.0 | 1.0 | 0.00 | 0.00 | 0.00 | 75 | 1020.4 | |
| 20260507192015 | 56 | 0.0 | 1.0 | 0.00 | 0.00 | 0.00 | 75 | 1020.4 | |
| 20260507191016 | 55 | 0.0 | 2.0 | 0.00 | 0.00 | 0.00 | 77 | 1020.4 | |
| 20260507190016 | 55 | 0.0 | 2.0 | 0.00 | 0.00 | 0.00 | 77 | 1020.5 | |
| 20260507185015 | 55 | 0.0 | 2.0 | 0.00 | 0.00 | 0.00 | 77 | 1020.5 | |
| 20260507184018 | 55 | 0.0 | 1.0 | 0.00 | 0.00 | 0.00 | 77 | 1020.6 | |
| 20260507183017 | 55 | 0.0 | 0.0 | 0.00 | 0.00 | 0.00 | 77 | 1020.7 | |
| 20260507182018 | 55 | 0.0 | 1.0 | 0.00 | 0.00 | 0.00 | 77 | 1020.7 | |
| 20260507181017 | 55 | 0.0 | 1.0 | 0.00 | 0.00 | 0.00 | 76 | 1020.7 | |
| 20260507180017 | 55 | 0.0 | 0.0 | 0.00 | 0.00 | 0.00 | 77 | 1020.8 | |
| 20260507175038 | 55 | 0.0 | 0.0 | 0.00 | 0.00 | 0.00 | 78 | 1020.8 | |
| 20260507174015 | 54 | 0.0 | 2.0 | 0.00 | 0.00 | 0.00 | 78 | 1020.8 | |
| 20260507173018 | 54 | 0.0 | 1.0 | 0.00 | 0.00 | 0.00 | 78 | 1020.9 | |
| 20260507172018 | 54 | 0.0 | 0.0 | 0.00 | 0.00 | 0.00 | 79 | 1020.9 | |
| 20260507171017 | 54 | 0.0 | 1.0 | 0.00 | 0.00 | 0.00 | 79 | 1020.8 | |
| 20260507170017 | 54 | 0.0 | 2.0 | 0.00 | 0.00 | 0.00 | 80 | 1020.8 | |
| 20260507165037 | 53 | 0.0 | 4.0 | 0.00 | 0.00 | 0.00 | 80 | 1020.8 | |
| 20260507164017 | 53 | 0.0 | 1.0 | 0.00 | 0.00 | 0.00 | 80 | 1020.7 | |
| 20260507163017 | 53 | 0.0 | 3.0 | 0.00 | 0.00 | 0.00 | 80 | 1020.7 | |
| 20260507162017 | 53 | 0.0 | 2.0 | 0.00 | 0.00 | 0.00 | 81 | 1020.8 | |
| 20260507161017 | 53 | 0.0 | 2.0 | 0.00 | 0.00 | 0.00 | 82 | 1020.8 | |
| 20260507160038 | 52 | 0.0 | 4.0 | 0.00 | 0.00 | 0.00 | 82 | 1020.9 | |
| 20260507155017 | 52 | 23 | 1.0 | 6.0 | 0.00 | 0.00 | 0.00 | 82 | 1020.8 |
| 20260507154017 | 52 | 68 | 1.0 | 4.0 | 0.00 | 0.00 | 0.00 | 83 | 1020.9 |
| 20260507153017 | 52 | 0.0 | 2.0 | 0.00 | 0.00 | 0.00 | 84 | 1020.8 | |
| 20260507152017 | 52 | 0.0 | 3.0 | 0.00 | 0.00 | 0.00 | 85 | 1020.9 | |
| 20260507151017 | 51 | 0.0 | 4.0 | 0.00 | 0.00 | 0.00 | 86 | 1020.9 | |
| 20260507150018 | 51 | 0.0 | 1.0 | 0.00 | 0.00 | 0.00 | 87 | 1020.9 | |
| 20260507145017 | 51 | 0.0 | 1.0 | 0.00 | 0.00 | 0.00 | 88 | 1020.9 | |
| 20260507144017 | 50 | 0.0 | 1.0 | 0.00 | 0.00 | 0.00 | 89 | 1020.9 | |
| 20260507143017 | 50 | 0.0 | 0.0 | 0.00 | 0.00 | 0.00 | 90 | 1020.9 | |
| 20260507142037 | 50 | 0.0 | 0.0 | 0.00 | 0.00 | 0.00 | 91 | 1020.9 | |
| 20260507141017 | 50 | 0.0 | 0.0 | 0.00 | 0.00 | 0.00 | 91 | 1020.9 | |
| 20260507140018 | 50 | 0.0 | 0.0 | 0.00 | 0.00 | 0.00 | 93 | 1020.8 | |
| 20260507135017 | 49 | 0.0 | 0.0 | 0.00 | 0.00 | 0.00 | 93 | 1020.8 | |
| 20260507134037 | 49 | 0.0 | 0.0 | 0.00 | 0.00 | 0.00 | 93 | 1020.7 | |
| 20260507133017 | 49 | 0.0 | 0.0 | 0.00 | 0.00 | 0.00 | 93 | 1020.5 | |
| 20260507132017 | 49 | 0.0 | 0.0 | 0.00 | 0.00 | 0.00 | 93 | 1020.5 | |
| 20260507131017 | 49 | 0.0 | 1.0 | 0.00 | 0.00 | 0.00 | 93 | 1020.6 | |
| 20260507130057 | 49 | 0.0 | 0.0 | 0.00 | 0.00 | 0.00 | 94 | 1020.6 | |
| 20260507125037 | 49 | 0.0 | 0.0 | 0.00 | 0.00 | 0.00 | 93 | 1020.7 | |
| 20260507124016 | 49 | 0.0 | 0.0 | 0.00 | 0.00 | 0.00 | 93 | 1020.7 | |
| 20260507123117 | 49 | 0.0 | 0.0 | 0.00 | 0.00 | 0.00 | 93 | 1020.8 | |
| 20260507122017 | 49 | 0.0 | 1.0 | 0.00 | 0.00 | 0.00 | 93 | 1020.9 | |
| 20260507121017 | 49 | 0.0 | 0.0 | 0.00 | 0.00 | 0.00 | 93 | 1020.8 | |
| 20260507120017 | 49 | 0.0 | 1.0 | 0.00 | 0.00 | 0.00 | 92 | 1020.9 | |
| 20260507115017 | 49 | 0.0 | 0.0 | 0.00 | 0.00 | 0.00 | 91 | 1021.0 | |
| 20260507114017 | 50 | 0.0 | 0.0 | 0.00 | 0.00 | 0.00 | 91 | 1021.1 | |
| 20260507113016 | 50 | 0.0 | 0.0 | 0.00 | 0.00 | 0.00 | 90 | 1021.0 | |
| 20260507112038 | 51 | 0.0 | 0.0 | 0.00 | 0.00 | 0.00 | 90 | 1021.1 | |
| 20260507111017 | 51 | 0.0 | 0.0 | 0.00 | 0.00 | 0.00 | 89 | 1021.2 | |
| 20260507110016 | 51 | 0.0 | 0.0 | 0.00 | 0.00 | 0.00 | 89 | 1021.2 | |
| 20260507105016 | 51 | 0.0 | 0.0 | 0.00 | 0.00 | 0.00 | 89 | 1021.2 | |
| 20260507104036 | 52 | 0.0 | 0.0 | 0.00 | 0.00 | 0.00 | 89 | 1021.2 | |
| 20260507103037 | 52 | 0.0 | 0.0 | 0.00 | 0.00 | 0.00 | 89 | 1021.3 | |
| 20260507102016 | 52 | 0.0 | 0.0 | 0.00 | 0.00 | 0.00 | 89 | 1021.3 | |
| 20260507101017 | 52 | 0.0 | 1.0 | 0.00 | 0.00 | 0.00 | 89 | 1021.3 | |
| 20260507100016 | 52 | 0.0 | 1.0 | 0.00 | 0.00 | 0.00 | 89 | 1021.3 | |
| 20260507095017 | 52 | 0.0 | 1.0 | 0.00 | 0.00 | 0.00 | 89 | 1021.3 | |
| 20260507094037 | 52 | 0.0 | 0.0 | 0.00 | 0.00 | 0.00 | 89 | 1021.3 | |
| 20260507093016 | 52 | 0.0 | 1.0 | 0.00 | 0.00 | 0.00 | 90 | 1021.2 | |
| 20260507092016 | 52 | 0.0 | 0.0 | 0.00 | 0.00 | 0.00 | 90 | 1021.3 | |
| 20260507091037 | 52 | 0.0 | 1.0 | 0.00 | 0.00 | 0.00 | 90 | 1021.3 | |
| 20260507090017 | 52 | 0.0 | 1.0 | 0.00 | 0.00 | 0.00 | 90 | 1021.4 | |
| 20260507085016 | 52 | 0.0 | 0.0 | 0.00 | 0.00 | 0.00 | 90 | 1021.3 | |
| 20260507084016 | 52 | 0.0 | 1.0 | 0.00 | 0.00 | 0.00 | 90 | 1021.3 | |
| 20260507083016 | 53 | 0.0 | 1.0 | 0.00 | 0.00 | 0.00 | 90 | 1021.2 | |
| 20260507082016 | 53 | 0.0 | 0.0 | 0.00 | 0.00 | 0.00 | 90 | 1021.1 | |
| 20260507081017 | 53 | 0.0 | 0.0 | 0.00 | 0.00 | 0.00 | 90 | 1021.1 | |
| 20260507080016 | 53 | 0.0 | 0.0 | 0.00 | 0.00 | 0.00 | 90 | 1021.2 | |
| 20260507075016 | 53 | 0.0 | 0.0 | 0.00 | 0.00 | 0.00 | 90 | 1021.2 | |
| 20260507074016 | 53 | 0.0 | 0.0 | 0.00 | 0.00 | 0.00 | 89 | 1021.1 | |
| 20260507073017 | 53 | 0.0 | 0.0 | 0.00 | 0.00 | 0.00 | 89 | 1021.1 | |
| 20260507072016 | 53 | 0.0 | 0.0 | 0.00 | 0.00 | 0.00 | 89 | 1021.1 | |
| 20260507071016 | 53 | 0.0 | 0.0 | 0.00 | 0.00 | 0.00 | 88 | 1021.0 | |
| 20260507070016 | 53 | 0.0 | 0.0 | 0.00 | 0.00 | 0.00 | 88 | 1020.9 | |
| 20260507065016 | 53 | 0.0 | 0.0 | 0.00 | 0.00 | 0.00 | 87 | 1020.9 | |
| 20260507064016 | 53 | 0.0 | 0.0 | 0.00 | 0.00 | 0.00 | 87 | 1020.9 | |
| 20260507063017 | 54 | 0.0 | 0.0 | 0.00 | 0.00 | 0.00 | 88 | 1021.0 | |
| 20260507062016 | 54 | 0.0 | 0.0 | 0.00 | 0.00 | 0.00 | 88 | 1021.0 | |
| 20260507061016 | 54 | 0.0 | 1.0 | 0.00 | 0.00 | 0.00 | 88 | 1021.0 | |
| 20260507060016 | 54 | 0.0 | 1.0 | 0.00 | 0.00 | 0.00 | 87 | 1021.0 | |
| 20260507055016 | 54 | 0.0 | 0.0 | 0.00 | 0.00 | 0.00 | 88 | 1021.1 | |
| 20260507054016 | 54 | 0.0 | 0.0 | 0.00 | 0.00 | 0.00 | 88 | 1021.2 | |
| 20260507053016 | 54 | 0.0 | 1.0 | 0.00 | 0.00 | 0.00 | 88 | 1021.1 | |
| 20260507052016 | 54 | 0.0 | 1.0 | 0.00 | 0.00 | 0.00 | 88 | 1021.2 | |
| 20260507051036 | 54 | 0.0 | 0.0 | 0.00 | 0.00 | 0.00 | 88 | 1021.2 | |
| 20260507050017 | 54 | 0.0 | 0.0 | 0.00 | 0.00 | 0.00 | 88 | 1021.3 | |
| 20260507045016 | 54 | 0.0 | 0.0 | 0.00 | 0.00 | 0.00 | 88 | 1021.2 | |
| 20260507044016 | 55 | 0.0 | 0.0 | 0.00 | 0.00 | 0.00 | 87 | 1021.2 | |
| 20260507043016 | 55 | 0.0 | 0.0 | 0.00 | 0.00 | 0.00 | 87 | 1021.2 | |
| 20260507042017 | 55 | 0.0 | 0.0 | 0.00 | 0.00 | 0.00 | 87 | 1021.2 | |
| 20260507041016 | 55 | 0.0 | 0.0 | 0.00 | 0.00 | 0.00 | 87 | 1021.2 | |
| 20260507040016 | 55 | 0.0 | 0.0 | 0.00 | 0.00 | 0.00 | 86 | 1021.1 | |
| 20260507035017 | 55 | 0.0 | 0.0 | 0.00 | 0.00 | 0.00 | 86 | 1021.0 | |
| 20260507034036 | 55 | 0.0 | 0.0 | 0.00 | 0.00 | 0.00 | 86 | 1020.9 | |
| 20260507033016 | 55 | 0.0 | 0.0 | 0.00 | 0.00 | 0.00 | 86 | 1020.8 | |
| 20260507032016 | 55 | 0.0 | 0.0 | 0.00 | 0.00 | 0.00 | 85 | 1020.7 | |
| 20260507031016 | 55 | 0.0 | 0.0 | 0.00 | 0.00 | 0.00 | 84 | 1020.6 | |
| 20260507030037 | 56 | 0.0 | 0.0 | 0.00 | 0.00 | 0.00 | 84 | 1020.5 | |
| 20260507025016 | 56 | 0.0 | 0.0 | 0.00 | 0.00 | 0.00 | 84 | 1020.6 | |
| 20260507024016 | 56 | 0.0 | 0.0 | 0.00 | 0.00 | 0.00 | 82 | 1020.6 | |
| 20260507023016 | 56 | 0.0 | 0.0 | 0.00 | 0.00 | 0.00 | 82 | 1020.6 | |
| 20260507022016 | 56 | 0.0 | 0.0 | 0.00 | 0.00 | 0.00 | 82 | 1020.5 | |
| 20260507021015 | 56 | 0.0 | 0.0 | 0.00 | 0.00 | 0.00 | 82 | 1020.5 | |
| 20260507020036 | 56 | 0.0 | 0.0 | 0.00 | 0.00 | 0.00 | 82 | 1020.6 | |
| 20260507015016 | 56 | 0.0 | 0.0 | 0.00 | 0.00 | 0.00 | 81 | 1020.5 | |
| 20260507014036 | 57 | 0.0 | 0.0 | 0.00 | 0.00 | 0.00 | 80 | 1020.5 | |
| 20260507013056 | 57 | 0.0 | 0.0 | 0.00 | 0.00 | 0.00 | 80 | 1020.5 | |
| 20260507012016 | 57 | 0.0 | 0.0 | 0.00 | 0.00 | 0.00 | 79 | 1020.5 | |
| 20260507010036 | 57 | 0.0 | 0.0 | 0.00 | 0.00 | 0.00 | 80 | 1020.6 | |
| 20260507005016 | 57 | 0.0 | 0.0 | 0.00 | 0.00 | 0.00 | 79 | 1020.6 | |
| 20260507004016 | 57 | 0.0 | 1.0 | 0.00 | 0.00 | 0.00 | 79 | 1020.7 | |
| 20260507003015 | 57 | 0.0 | 0.0 | 0.00 | 0.00 | 0.00 | 78 | 1020.6 | |
| 20260507002016 | 57 | 0.0 | 1.0 | 0.00 | 0.00 | 0.00 | 78 | 1020.7 | |
| 20260507001036 | 57 | 0.0 | 2.0 | 0.00 | 0.00 | 0.00 | 79 | 1020.6 | |
| 20260507000015 | 57 | 0.0 | 1.0 | 0.00 | 0.00 | 0.00 | 80 | 1020.7 | |
| 20260506235035 | 57 | 0.0 | 1.0 | 0.00 | 0.00 | 0.00 | 80 | 1020.7 | |
| 20260506234015 | 56 | 0.0 | 0.0 | 0.00 | 0.00 | 0.00 | 80 | 1020.7 | |
| 20260506233016 | 56 | 0.0 | 2.0 | 0.00 | 0.00 | 0.00 | 79 | 1020.7 | |
| 20260506232016 | 56 | 0.0 | 2.0 | 0.00 | 0.00 | 0.00 | 80 | 1020.8 | |
| 20260506231015 | 56 | 0.0 | 2.0 | 0.00 | 0.00 | 0.00 | 81 | 1020.7 | |
| 20260506230035 | 56 | 0.0 | 3.0 | 0.00 | 0.00 | 0.00 | 81 | 1020.8 | |
| 20260506225016 | 56 | 0.0 | 1.0 | 0.00 | 0.00 | 0.00 | 82 | 1020.8 | |
| 20260506224015 | 56 | 0.0 | 1.0 | 0.00 | 0.00 | 0.00 | 84 | 1020.8 | |
| 20260506223036 | 55 | 0.0 | 1.0 | 0.00 | 0.00 | 0.00 | 84 | 1020.9 | |
| 20260506222015 | 55 | 0.0 | 1.0 | 0.00 | 0.00 | 0.00 | 85 | 1021.0 | |
| 20260506221016 | 55 | 0.0 | 1.0 | 0.00 | 0.00 | 0.00 | 86 | 1021.0 | |
| 20260506220015 | 55 | 0.0 | 1.0 | 0.00 | 0.00 | 0.00 | 87 | 1020.9 | |
| 20260506215038 | 55 | 0.0 | 1.0 | 0.00 | 0.00 | 0.00 | 88 | 1021.0 | |
| 20260506214017 | 55 | 0.0 | 1.0 | 0.00 | 0.00 | 0.00 | 88 | 1021.0 | |
| 20260506213038 | 55 | 0.0 | 1.0 | 0.00 | 0.00 | 0.00 | 88 | 1021.0 | |
| 20260506212018 | 55 | 0.0 | 4.0 | 0.00 | 0.00 | 0.00 | 86 | 1021.0 | |
| 20260506211017 | 55 | 0.0 | 2.0 | 0.00 | 0.00 | 0.00 | 86 | 1020.9 | |
| 20260506210017 | 55 | 0.0 | 2.0 | 0.00 | 0.00 | 0.00 | 86 | 1020.9 | |
| 20260506205017 | 56 | 0.0 | 0.0 | 0.00 | 0.00 | 0.00 | 86 | 1020.9 | |
| 20260506204018 | 56 | 0.0 | 0.0 | 0.00 | 0.00 | 0.00 | 86 | 1020.8 | |
| 20260506203017 | 56 | 0.0 | 2.0 | 0.00 | 0.00 | 0.00 | 87 | 1020.8 | |
| 20260506202017 | 56 | 0.0 | 2.0 | 0.00 | 0.00 | 0.00 | 85 | 1020.7 | |
| 20260506201018 | 56 | 0.0 | 4.0 | 0.00 | 0.00 | 0.00 | 86 | 1020.7 | |
| 20260506200037 | 57 | 0.0 | 3.0 | 0.00 | 0.00 | 0.00 | 85 | 1020.6 | |
| 20260506195017 | 57 | 0.0 | 1.0 | 0.00 | 0.00 | 0.00 | 85 | 1020.5 | |
| 20260506194017 | 57 | 0.0 | 3.0 | 0.00 | 0.00 | 0.00 | 84 | 1020.5 |